Location: Bh?mavarapp?du
(16.7041°N, 80.6518°E)
Time: 02:39:45
(UTC+00:00)

Landsat 5 - Pass Details

Date: 21 April 2021
Orbit: 528 x 654 km, 98.2° (Epoch: 15 May)

Event Time Altitude Azimuth Distance (km) Brightness Sun altitude
Rises 23:14:33 0° 159° (SSE) 2,894 7.0 -15.4°
Reaches altitude 10° 23:16:44 10° 155° (SSE) 2,005 6.3 -14.9°
Maximum altitude 23:21:02 57° 77° (ENE) 753 4.3 -13.9°
Drops below altitude 10° 23:25:26 10° 358° (N) 2,051 6.4 -12.9°
Sets 23:27:41 0° 355° (N) 2,967 7.2 -12.4°
